Theta_e
312 311 311 311 311 311 312 313 314 314 316 316 315 315 314 313 314 317 318 318 320 318 317 318 318 318 320 319 319 322 321 325 339 338 336 335 334 336 337 335 335 336 336 337 339 340 341 343 343 343 343 344 344 344 344 343 341 340 340 339 338 337 335 332 329 329 331 332 332 333 333 335 337 337 336 333 332 335 337 337 335 334 337 338 337 337
312 311 311 311 311 312 312 314 314 314 315 315 315 315 314 314 314 317 319 318 320 318 317 319 318 318 320 318 320 323 320 331 339 337 336 334 334 337 337 335 336 338 338 339 340 339 340 341 342 343 343 343 343 344 344 342 342 341 340 339 337 337 335 330 328 330 331 331 333 335 334 335 337 334 333 334 334 335 335 334 333 333 335 335 335 336
311 311 311 311 312 313 313 314 314 314 315 315 315 315 314 315 315 317 318 319 319 318 318 319 317 317 319 320 321 320 326 337 338 337 336 335 335 335 336 336 337 337 338 339 339 339 339 340 341 341 342 343 343 343 343 342 341 341 340 338 337 337 334 332 331 331 332 333 335 335 334 335 335 333 332 333 334 334 331 331 333 333 334 332 332 335
311 311 312 312 312 312 313 313 313 314 314 314 314 313 313 315 314 314 317 319 320 319 319 319 318 318 319 321 319 322 337 338 337 337 337 336 336 336 337 337 337 338 338 338 337 338 339 338 340 341 341 342 343 342 341 341 342 341 339 338 337 336 334 334 334 332 333 335 336 335 335 335 335 334 334 333 333 333 331 332 335 335 335 334 333 336
312 312 312 312 312 312 312 313 314 314 313 314 315 314 314 316 315 315 317 320 319 318 319 318 315 316 318 320 318 329 338 337 336 336 337 337 337 337 337 337 337 338 339 338 337 338 339 338 339 341 341 342 342 342 342 341 341 341 340 338 337 336 334 334 333 332 333 334 334 334 334 334 334 335 334 331 332 335 334 335 337 337 337 337 337 336
313 313 313 312 312 312 312 313 314 313 313 313 314 315 315 317 317 317 318 318 316 315 318 317 313 313 318 319 318 331 338 337 336 336 336 337 338 337 337 338 337 338 339 339 337 336 338 339 340 341 342 342 342 342 342 341 341 341 339 338 337 336 335 334 333 333 334 334 334 333 334 334 334 335 334 331 332 335 335 335 336 336 336 337 337 336
313 313 313 312 312 312 312 313 314 314 313 312 314 316 317 318 318 317 317 316 313 313 317 317 313 312 315 318 317 328 338 337 336 336 336 338 338 338 338 339 339 338 338 339 337 336 338 339 340 341 342 342 342 342 342 341 341 340 339 338 336 336 335 335 334 335 335 334 334 334 334 334 335 336 336 334 333 331 331 333 333 333 335 336 337 337
313 313 313 313 312 313 312 313 314 315 313 312 315 316 316 318 318 318 317 315 314 315 317 317 315 313 312 317 318 322 337 339 338 337 337 339 339 337 338 339 340 339 339 339 337 337 339 340 340 341 341 341 341 341 341 341 341 340 339 338 336 336 336 335 334 335 335 334 334 334 333 334 335 336 336 334 332 330 331 333 332 333 335 336 337 337
313 313 313 313 312 313 313 313 314 315 313 314 316 316 317 318 318 318 317 315 316 315 314 315 315 313 311 318 320 318 334 339 339 339 338 339 340 338 338 339 339 339 339 340 338 337 340 341 341 341 341 340 341 341 341 340 340 340 339 338 336 336 336 335 335 335 335 334 333 334 334 334 334 335 335 334 333 334 335 334 334 334 335 335 335 335
313 314 314 313 313 313 314 315 315 315 314 315 317 317 317 318 317 318 317 315 316 315 314 314 314 312 310 315 318 317 333 339 337 338 339 340 341 340 339 340 340 340 341 341 340 340 341 341 341 341 341 340 340 341 340 340 340 340 340 338 337 337 336 336 336 335 334 334 334 334 334 333 333 333 334 334 335 335 336 335 335 335 335 334 333 333
314 315 315 314 314 314 315 315 315 315 315 315 316 316 316 317 316 317 317 315 315 314 314 314 314 313 311 313 317 318 332 339 336 335 338 340 341 340 340 341 342 342 342 342 341 341 341 341 341 340 340 341 341 340 340 340 340 341 340 337 336 337 336 336 336 335 334 334 334 334 334 333 332 333 332 332 334 335 335 335 335 334 333 332 332 331
314 314 314 315 314 315 315 315 315 315 315 315 316 316 314 314 314 315 315 315 315 314 313 314 315 313 311 313 317 319 327 337 335 333 337 340 341 341 341 341 342 341 341 341 342 342 341 341 341 339 338 340 340 340 340 339 340 340 339 337 336 336 336 336 336 335 334 334 333 334 335 334 333 333 333 333 334 335 334 334 334 332 331 329 329 329
314 314 314 315 315 315 314 314 314 314 314 315 315 314 313 312 313 314 314 314 314 313 313 315 315 313 312 315 319 321 322 332 335 334 335 338 340 340 341 341 341 340 340 341 342 342 341 339 339 339 338 339 339 339 339 338 338 339 338 337 336 336 336 335 335 335 334 334 334 334 335 334 334 333 333 333 334 334 333 333 332 330 330 329 328 327
313 314 314 314 314 315 315 313 312 313 314 314 313 313 312 312 314 315 314 313 313 313 314 315 315 313 314 317 319 322 322 327 332 333 334 336 335 338 340 341 340 340 341 342 341 340 339 338 338 338 338 339 338 338 338 338 337 338 338 337 336 336 335 335 335 335 335 335 335 335 334 334 334 334 333 333 334 333 332 332 330 329 328 328 326 325
313 314 313 314 313 314 315 313 313 314 313 314 314 314 313 312 314 315 313 313 314 313 313 315 315 313 313 319 322 322 323 325 328 330 333 334 334 337 340 340 340 341 341 341 340 338 338 338 338 338 338 338 338 338 339 338 337 337 336 336 335 335 335 335 335 335 335 335 335 334 334 334 334 334 333 333 333 332 330 329 328 327 327 326 325 325
313 313 313 314 314 314 314 314 315 314 312 314 314 313 314 314 314 314 313 314 315 314 313 313 314 315 319 324 325 321 323 324 327 330 331 331 333 337 339 339 340 341 340 339 338 338 339 339 338 336 336 336 337 338 338 337 337 336 335 335 335 335 335 334 334 334 334 334 334 334 334 333 333 332 332 332 331 330 328 326 325 325 325 325 324 322
313 313 314 315 315 314 314 314 315 315 312 313 313 312 315 316 316 314 313 315 317 315 314 313 313 318 324 327 326 323 324 323 325 332 333 330 332 336 339 339 339 339 339 339 338 339 340 338 337 336 335 335 337 337 337 336 336 335 335 335 335 334 334 333 333 333 332 332 332 331 331 330 330 329 329 328 327 326 324 323 324 324 323 321 319 318
314 314 315 314 314 314 315 315 315 315 314 313 311 313 316 317 317 316 314 315 316 315 315 313 313 316 319 323 326 325 324 324 323 329 335 335 334 337 339 338 338 338 339 339 339 339 338 338 337 336 335 335 337 336 336 336 336 335 335 335 334 333 332 332 332 331 330 329 329 329 329 328 327 326 325 324 323 323 322 321 321 321 320 317 316 316
315 315 315 314 314 315 314 314 314 314 315 314 313 315 315 314 314 314 315 315 316 316 315 314 313 314 315 319 325 325 325 326 324 324 332 337 335 337 338 336 337 338 338 339 338 338 338 338 338 337 335 336 336 336 336 336 335 335 334 333 333 331 331 330 330 329 328 328 328 327 327 326 325 323 322 322 321 321 321 320 319 317 317 316 315 315
316 315 315 314 314 315 313 313 312 313 314 314 315 315 314 314 313 313 315 315 315 315 315 314 314 314 315 320 324 325 325 326 326 325 329 333 335 336 337 335 336 337 337 337 337 338 339 338 337 337 337 336 336 336 336 335 334 333 332 332 331 330 329 329 328 327 327 326 326 325 324 323 322 322 321 321 320 320 319 319 318 316 316 315 315 314
315 316 315 315 314 314 313 313 313 313 313 313 313 313 312 314 313 314 315 313 314 315 315 316 315 314 317 321 323 325 326 327 327 327 327 329 335 336 335 335 335 335 334 334 337 339 339 337 336 337 336 336 335 335 334 333 333 332 331 330 330 329 328 327 326 325 325 324 323 323 322 322 321 321 320 320 319 318 317 317 317 316 315 314 314 314
315 316 316 314 313 312 312 313 314 314 314 313 313 312 312 313 312 313 313 313 313 314 314 316 314 316 324 327 323 324 327 326 325 326 328 325 331 336 337 336 335 336 336 336 338 339 338 337 336 336 336 335 334 333 332 332 332 331 330 329 328 327 326 325 324 323 323 322 322 321 321 321 320 319 319 318 317 316 316 315 315 315 314 313 314 314
316 317 316 314 313 313 314 314 314 315 315 314 314 314 314 313 312 312 312 314 314 313 314 315 313 320 331 332 328 329 328 326 326 326 326 324 332 339 339 338 337 337 337 338 339 338 337 336 336 336 335 334 334 332 332 331 330 329 329 328 327 326 324 323 323 322 321 321 320 320 320 319 318 317 317 316 315 315 315 314 314 314 313 313 313 313
316 316 316 314 314 314 314 314 314 315 315 314 314 314 315 314 313 314 314 316 315 313 315 315 315 322 331 333 332 332 328 324 324 325 329 335 341 341 341 339 339 339 338 338 338 337 336 336 336 336 335 334 333 331 331 330 329 328 327 326 325 324 324 323 322 321 320 320 319 319 318 317 316 315 315 314 314 314 314 313 313 313 313 313 313 314
315 315 315 315 314 314 315 314 314 314 314 314 314 314 315 315 315 316 316 317 316 314 314 314 316 322 330 332 332 330 329 330 331 333 339 342 342 341 341 340 340 339 338 337 337 336 336 335 335 335 333 332 331 330 330 328 327 327 326 325 324 323 323 322 321 320 320 319 318 317 316 315 314 313 313 313 313 313 313 313 313 313 313 313 313 314
315 315 315 315 315 315 315 314 314 313 313 314 314 314 315 315 315 315 315 315 315 316 314 314 319 326 329 330 329 330 334 337 339 341 341 341 341 340 339 339 339 338 337 337 336 335 334 334 334 333 332 331 330 329 328 327 326 325 324 324 323 322 321 320 320 319 318 318 317 316 315 314 312 312 312 312 312 312 312 312 312 312 312 313 313 313
315 316 316 315 314 314 313 314 314 313 313 314 314 314 314 315 316 316 316 315 315 316 314 315 323 329 328 327 328 331 335 337 339 339 339 340 339 338 338 338 337 337 336 336 335 334 333 333 333 332 330 329 328 327 326 325 324 324 323 323 322 321 320 320 319 318 317 317 316 315 314 312 311 312 311 311 312 312 312 312 312 312 312 312 313 313
315 315 316 315 314 314 313 314 315 314 314 313 313 314 314 315 316 317 317 316 316 316 314 318 326 327 324 326 329 331 334 336 336 337 338 338 338 338 337 336 335 335 335 335 334 333 332 331 330 329 328 327 326 325 325 324 323 322 322 321 320 320 320 319 318 317 316 316 315 314 313 311 311 312 311 311 311 311 312 311 311 311 312 312 312 312
315 314 316 315 314 314 314 314 315 314 314 314 314 315 315 315 315 317 319 318 317 316 316 321 326 324 321 324 328 330 333 335 335 335 336 336 337 336 335 334 334 333 333 333 332 331 330 328 328 327 326 326 325 324 323 322 321 320 320 319 319 319 318 318 317 316 315 315 314 313 312 311 311 311 311 312 312 311 311 311 311 311 311 311 311 312
315 314 315 315 315 315 315 315 314 315 314 314 315 315 316 316 316 317 319 318 319 319 318 321 324 324 323 323 326 331 334 335 334 334 335 335 335 334 333 333 333 333 333 332 331 330 328 327 327 326 325 325 324 323 322 321 320 319 318 318 318 317 317 316 315 315 314 314 312 311 310 310 311 311 311 311 311 311 311 311 311 311 310 310 310 311
315 314 315 315 314 314 315 315 315 315 314 314 314 315 316 317 316 316 318 320 320 319 319 321 321 321 323 326 328 332 335 334 334 334 334 334 334 333 332 332 332 332 332 330 329 328 326 326 326 325 324 323 322 321 321 319 318 318 317 317 317 317 316 315 314 314 313 312 311 310 310 310 311 311 311 311 311 311 311 310 310 310 310 309 309 309
314 314 315 315 314 314 315 314 314 315 315 314 314 315 316 317 317 317 317 319 319 318 320 321 319 320 325 328 329 330 333 334 333 333 333 333 333 332 331 330 331 330 329 327 326 325 325 325 324 324 323 322 321 320 319 319 318 317 317 317 317 316 316 315 314 313 313 312 311 311 311 311 311 311 311 311 311 311 310 310 310 310 309 308 308 308
314 314 314 314 314 314 315 315 315 316 315 315 316 316 316 317 318 317 317 319 320 320 321 319 319 325 329 329 328 329 331 333 332 332 332 332 332 332 330 329 329 328 326 325 324 324 324 323 323 322 321 321 320 319 319 318 317 317 316 316 316 316 316 315 314 313 312 312 311 311 311 311 311 311 311 311 310 310 310 310 310 309 309 308 308 307
315 314 314 314 314 314 315 315 315 316 315 316 319 321 318 317 318 317 318 320 320 320 320 319 324 331 332 331 331 331 331 332 331 330 331 331 331 331 329 328 327 326 324 323 323 323 322 322 321 321 320 319 319 319 318 317 317 316 316 315 315 315 315 314 313 313 312 312 311 311 311 311 311 311 310 310 310 310 310 309 309 309 308 308 308 307
315 315 315 314 314 314 315 315 316 316 317 320 325 325 322 319 318 318 318 318 318 319 319 320 326 331 331 331 333 332 331 331 329 328 330 331 330 329 328 326 325 324 323 322 322 321 321 321 320 320 319 319 318 317 317 316 316 315 315 315 314 314 314 313 313 313 312 311 311 311 311 311 310 310 310 309 309 309 309 309 309 308 308 308 307 307
314 315 315 314 314 315 315 315 316 318 320 324 326 325 322 321 320 319 319 318 317 318 318 318 323 328 329 330 331 331 330 329 328 328 329 330 330 328 326 324 324 323 322 322 321 321 320 320 320 319 318 317 316 316 316 315 315 314 314 314 314 313 313 313 312 312 312 311 311 311 311 310 310 310 309 309 309 308 308 308 308 307 307 306 306 306
314 315 315 314 313 314 315 315 317 318 321 324 325 323 322 321 321 320 319 319 319 319 319 318 321 327 329 329 329 330 329 328 328 329 330 330 329 327 326 325 324 323 322 321 321 321 320 319 318 317 316 316 316 316 315 314 314 314 314 313 313 313 312 312 312 312 311 311 311 310 310 310 309 309 309 308 308 308 308 307 307 306 305 304 302 302
314 315 315 314 314 314 314 315 317 317 319 322 322 322 322 321 321 320 319 319 320 320 319 317 321 328 330 329 329 329 328 328 329 329 330 329 327 326 325 324 323 322 322 321 321 319 318 317 317 316 316 315 316 315 314 314 313 313 313 313 313 312 312 312 311 311 311 311 310 310 310 309 309 309 308 308 308 308 307 307 306 306 306 304 300 298
314 314 314 314 314 314 314 315 316 316 319 323 323 323 323 322 321 320 319 318 319 320 319 317 322 329 330 329 329 329 328 328 329 329 329 328 326 326 324 323 322 322 322 321 319 318 317 317 316 316 316 315 315 314 313 313 313 313 312 312 312 312 311 311 311 311 311 310 310 310 309 309 308 308 308 308 307 307 306 306 305 305 305 305 303 301
314 314 314 314 314 314 314 315 315 317 321 324 325 324 323 322 321 320 318 318 318 320 319 317 323 329 330 329 329 328 327 328 329 329 329 327 326 325 324 322 322 322 321 320 319 318 317 317 317 316 316 315 314 314 313 313 313 312 312 311 311 311 311 310 310 310 310 309 309 309 308 308 308 308 308 307 307 306 306 305 305 305 305 305 305 304
314 314 314 314 314 314 314 314 316 319 323 324 323 323 323 323 322 320 319 321 324 323 320 317 323 328 330 330 329 327 326 327 329 329 328 327 325 324 323 322 321 321 320 319 319 319 318 317 317 316 315 315 315 314 313 313 312 311 311 311 311 310 310 309 309 309 309 308 308 308 307 307 307 307 307 306 306 306 306 306 306 305 305 304 304 304
314 314 314 314 314 314 314 315 315 319 322 323 322 323 325 324 322 321 322 325 327 327 322 317 321 327 330 330 328 327 327 328 329 328 327 326 325 324 323 321 321 321 320 320 319 318 318 317 317 316 315 315 314 314 314 313 312 311 311 311 310 309 309 309 309 308 308 307 307 307 307 306 306 306 306 305 305 305 305 305 305 305 304 304 304 304
314 314 313 313 314 314 314 315 315 318 322 322 321 322 324 323 322 323 326 326 327 328 324 317 319 327 330 329 328 328 329 329 329 328 326 325 324 323 322 321 321 321 320 320 319 318 317 317 316 315 315 314 314 313 313 312 311 311 311 310 310 309 308 308 308 307 307 306 306 306 305 305 305 305 305 305 305 305 304 304 304 304 303 303 304 304
314 314 314 314 313 314 314 315 317 320 322 322 322 322 323 324 324 325 326 326 326 328 327 322 322 327 329 328 327 328 329 328 327 327 325 324 323 323 322 321 321 321 320 319 318 317 317 316 315 315 314 314 313 312 311 311 310 310 309 309 307 306 305 306 305 305 305 305 305 305 305 305 305 305 305 304 304 304 304 304 304 304 304 304 304 304
315 316 317 316 316 317 318 319 320 322 322 323 324 325 324 324 325 326 326 326 326 327 327 326 327 327 327 327 326 327 328 327 326 326 325 323 323 322 321 321 321 320 319 318 318 317 316 315 315 314 314 312 311 310 309 309 309 308 307 306 304 303 305 306 305 305 305 306 305 305 305 305 305 305 305 305 305 305 304 305 305 304 304 304 304 304
319 319 319 318 318 319 321 321 322 322 323 324 326 327 326 325 325 326 325 326 326 326 326 327 327 327 326 326 326 327 328 325 325 325 324 323 322 321 321 321 320 319 318 317 317 316 316 315 314 313 312 311 310 309 308 308 308 307 306 305 305 306 306 306 306 306 306 306 305 305 305 305 305 305 305 304 304 304 304 304 304 303 303 303 303 303
320 320 319 317 317 318 319 320 322 323 324 325 325 325 325 325 325 325 325 325 326 326 326 326 327 327 326 326 327 327 326 324 323 323 323 322 321 320 320 320 319 318 318 317 316 315 315 314 313 312 311 310 309 308 308 307 307 307 306 306 307 307 307 306 306 306 306 306 305 305 305 305 304 304 304 304 304 304 304 304 303 303 303 303 303 303
319 319 318 317 317 318 320 321 322 323 323 323 323 324 324 324 324 325 326 326 325 325 325 325 326 326 325 325 326 326 325 324 322 321 321 321 320 319 319 319 318 318 317 317 316 315 314 314 313 311 310 309 308 308 308 307 307 307 307 307 307 307 306 306 306 306 305 305 305 304 304 304 304 304 304 304 304 304 304 304 303 302 302 302 302 302
319 318 317 318 318 319 320 321 321 321 321 322 323 325 325 324 324 325 325 325 325 325 325 324 324 325 325 325 326 325 324 323 322 321 320 320 319 318 318 318 317 317 316 316 316 315 314 313 312 310 309 308 308 307 307 307 307 307 307 307 307 306 306 305 305 305 305 304 304 303 303 303 304 303 303 302 302 303 303 303 303 303 302 302 302 302
319 319 318 318 317 317 319 321 321 321 321 321 322 324 324 324 324 324 323 323 324 324 324 324 324 324 324 324 325 324 323 322 321 320 320 319 319 318 318 317 316 316 316 316 315 314 314 313 312 309 308 307 307 306 306 306 306 306 306 306 306 305 305 304 305 304 304 303 303 303 303 304 304 303 302 301 300 299 299 300 302 302 301 300 300 298
319 319 320 319 318 319 320 322 322 322 322 322 322 323 323 323 324 323 322 322 322 322 323 325 324 324 323 323 324 324 322 321 320 319 319 319 318 318 317 317 316 316 316 315 314 313 312 311 310 308 307 307 306 306 306 306 306 306 306 306 305 304 304 304 304 304 303 303 303 303 303 303 302 301 300 299 297 296 295 296 298 298 297 296 295 294
Wind_Speed
18 12 12 14 14 17 19 20 19 17 16 17 15 13 15 14 12 15 17 15 20 15 16 18 17 16 17 21 23 20 22 19 16 26 23 28 31 25 19 12 8 11 12 12 12 10 11 13 17 20 20 18 17 19 21 20 19 19 18 18 18 16 14 12 13 15 15 14 13 11 9 10 9 8 7 7 9 7 5 4 6 5 4 3 3 3
18 13 15 18 18 19 20 21 20 19 20 19 14 13 14 14 14 15 17 16 19 13 13 18 18 16 17 21 20 14 15 14 20 21 19 25 30 27 25 18 14 16 17 17 15 11 10 11 12 15 15 15 17 19 18 19 20 19 19 19 20 18 13 13 15 16 15 13 12 10 8 8 9 9 8 9 10 8 7 7 8 7 4 4 4 3
14 14 17 20 18 19 20 21 20 19 21 18 12 12 11 12 14 14 17 19 16 10 10 16 16 15 16 18 18 13 11 17 25 25 23 26 28 27 24 21 20 19 18 20 19 15 14 12 11 12 13 13 15 17 16 19 20 21 21 21 20 17 14 16 17 16 15 14 12 10 9 10 10 9 8 9 9 7 7 8 10 8 5 5 6 6
12 13 18 20 19 20 20 20 21 17 16 15 12 11 10 12 14 11 15 20 15 10 9 14 13 12 13 15 17 9 16 26 29 32 30 29 29 29 27 25 25 22 21 22 21 19 18 16 14 14 13 13 14 15 16 19 20 23 24 21 18 17 17 20 19 16 15 14 12 11 11 11 9 8 8 8 7 6 6 7 9 7 6 7 7 6
13 14 19 21 20 22 20 20 22 16 12 15 16 13 11 13 16 13 13 15 13 12 10 11 9 9 11 13 14 5 23 25 25 30 28 25 26 28 28 28 29 28 28 26 24 23 22 21 21 19 16 15 15 15 17 19 21 24 22 19 17 19 21 21 19 17 16 15 13 12 12 12 10 8 7 7 6 6 6 6 6 4 4 5 5 4
14 17 21 22 21 23 21 18 20 16 10 14 18 18 15 14 17 17 15 11 10 9 11 11 8 7 11 14 14 9 17 15 17 22 21 22 25 25 25 26 26 28 29 27 27 26 25 24 23 20 18 16 15 17 19 20 23 23 19 18 19 21 21 20 18 16 15 15 14 13 13 12 10 8 7 8 8 7 6 3 2 2 3 4 4 4
11 18 21 21 22 23 22 17 19 19 12 10 15 19 20 16 15 19 17 11 8 8 11 13 10 6 9 14 15 11 16 17 14 16 18 22 26 25 25 26 25 26 27 28 30 29 26 27 26 23 21 19 17 18 20 21 22 20 18 19 21 21 21 20 18 16 15 14 14 13 13 11 10 9 9 8 8 7 5 2 2 5 5 3 3 4
13 20 20 21 22 20 18 15 18 21 14 10 14 18 20 19 17 20 18 11 9 8 8 14 13 8 8 11 15 15 16 20 17 15 17 21 25 26 26 27 26 25 24 26 31 30 26 27 26 25 23 20 19 19 20 22 22 21 21 21 22 22 21 21 19 17 16 14 14 14 13 13 12 11 9 8 7 6 6 5 5 5 3 2 4 6
15 19 20 22 21 15 15 16 18 21 15 11 13 17 19 18 18 18 16 12 10 8 7 13 15 9 8 8 13 16 15 18 18 18 16 20 26 27 27 28 27 25 23 23 27 27 25 24 24 23 21 19 20 20 20 22 23 23 23 22 22 22 20 20 19 17 16 15 14 14 14 13 12 10 9 7 7 8 7 7 7 5 3 4 8 9
14 18 20 20 17 13 15 18 19 19 15 12 14 17 17 16 16 12 10 12 10 7 8 13 15 10 8 7 10 14 14 15 15 15 15 20 27 28 27 27 27 28 26 24 24 24 24 23 22 21 19 18 20 21 21 23 23 23 24 24 23 21 19 18 17 16 15 14 13 13 13 12 10 10 10 9 10 9 8 7 6 7 8 9 9 9
15 19 19 16 15 14 16 18 17 18 17 16 15 16 15 13 12 9 9 10 9 7 11 15 17 14 9 7 9 10 12 17 14 13 15 19 24 26 25 28 31 32 30 27 25 24 24 24 23 21 19 17 19 20 21 23 22 22 24 25 23 20 19 18 16 16 16 15 13 13 13 12 11 11 10 9 9 7 5 4 5 7 9 10 10 10
17 17 14 13 18 18 16 16 16 18 19 16 14 12 12 10 8 7 8 8 7 8 13 18 19 16 10 7 9 10 13 21 17 15 16 18 22 26 26 28 32 32 29 27 26 26 26 25 24 22 19 18 18 19 21 20 20 21 22 23 22 20 20 19 18 18 17 16 15 14 13 14 13 12 11 8 7 6 6 6 7 7 5 6 8 9
14 15 13 14 21 22 17 14 14 15 16 15 12 10 11 9 7 8 8 8 8 8 11 16 18 14 10 8 10 12 12 20 19 19 21 20 23 27 27 29 31 29 25 25 27 29 27 26 25 23 22 20 19 19 20 19 20 21 21 22 23 22 21 21 20 19 18 17 16 15 14 14 13 12 11 10 9 10 11 10 8 5 2 3 7 9
10 14 19 19 19 22 19 12 11 12 14 15 13 10 10 9 8 9 8 7 8 7 9 16 16 12 8 8 13 15 8 16 21 27 31 29 28 29 29 29 29 27 25 24 28 29 26 24 23 22 20 20 22 23 23 23 24 24 23 24 25 24 23 21 20 20 19 18 17 16 14 14 14 13 13 13 13 13 13 13 10 7 6 3 5 8
11 12 17 17 12 14 17 13 12 12 12 14 13 11 11 9 7 7 7 7 8 7 10 14 11 9 7 4 10 13 6 11 18 28 34 32 31 30 29 28 28 27 26 25 26 26 23 21 20 18 19 22 27 28 27 26 29 28 26 26 27 27 25 23 22 20 20 19 18 16 15 14 13 14 14 14 14 14 13 11 9 9 10 8 9 12
14 11 13 15 13 15 16 15 15 14 11 12 13 12 10 11 8 5 7 6 4 6 8 9 7 6 4 1 5 8 7 9 15 25 30 27 29 29 27 28 28 25 25 26 24 23 22 20 18 17 20 27 29 31 29 28 29 28 28 28 29 28 26 24 22 19 18 18 17 16 16 15 15 15 17 17 17 17 14 10 7 9 12 14 14 13
12 10 14 17 16 20 21 19 17 14 10 8 12 13 11 13 10 5 7 4 1 4 6 7 7 4 4 0 3 2 6 8 10 18 23 24 28 28 27 29 30 29 29 31 28 26 26 23 21 21 24 27 29 31 30 29 29 28 29 29 29 27 25 23 20 18 17 17 16 15 14 14 14 14 16 17 16 14 11 10 10 12 13 13 10 6
10 7 14 20 16 18 23 22 19 17 13 8 10 12 11 12 11 6 6 4 3 6 5 7 11 8 6 4 2 5 10 10 8 11 17 20 23 23 25 27 32 35 33 32 31 29 27 25 25 24 23 24 29 30 29 30 29 28 28 27 27 25 24 23 19 17 16 15 14 13 13 12 12 11 10 10 10 9 8 9 11 11 10 7 4 2
10 7 11 20 18 16 19 18 15 18 20 14 9 11 10 10 10 7 6 5 6 7 5 9 13 10 7 6 8 9 11 12 10 10 13 16 17 20 24 27 33 36 34 31 31 29 26 24 24 24 22 23 27 29 29 30 28 27 27 25 24 23 22 21 18 16 13 12 11 10 9 8 7 7 7 8 9 10 9 8 7 7 6 4 4 2
10 7 8 17 20 16 13 12 12 15 17 15 11 12 10 8 8 8 6 6 7 6 6 9 11 9 8 8 12 14 12 12 11 9 10 15 19 22 26 31 34 34 33 31 29 26 25 23 22 22 22 25 27 28 28 29 28 27 27 25 23 21 19 18 16 14 12 11 10 11 11 11 10 9 8 10 10 9 8 6 4 4 4 5 4 3
9 5 5 13 18 15 11 11 13 13 13 13 12 13 11 8 7 8 7 7 8 6 6 6 7 7 5 5 11 16 14 12 12 10 7 11 23 31 31 33 34 33 31 30 28 28 26 23 21 21 24 28 29 30 31 31 28 26 26 25 22 20 17 16 15 14 13 13 14 15 15 14 13 11 10 11 10 9 8 7 6 4 5 6 5 4
6 4 5 9 12 12 11 12 14 15 14 12 11 11 12 10 8 8 9 9 8 7 6 6 7 5 1 3 6 12 14 12 13 12 9 11 23 35 34 35 38 37 32 29 29 29 27 25 24 25 27 30 31 32 34 32 26 24 25 23 20 17 16 15 15 14 15 16 16 17 16 16 14 13 12 12 10 8 7 7 7 5 5 5 5 4
5 3 6 7 9 11 14 15 17 19 18 15 12 11 12 12 10 8 7 8 8 8 8 7 6 2 3 3 1 5 9 12 13 14 12 11 22 36 36 37 42 40 33 28 29 28 28 28 29 30 30 31 32 33 32 29 24 22 22 20 17 16 15 14 15 15 15 16 17 16 15 15 15 14 14 12 10 9 7 7 7 5 6 5 4 5
3 3 7 8 8 10 14 16 17 19 16 13 13 12 11 12 12 9 7 7 6 7 7 6 5 2 4 5 5 2 7 13 14 15 11 12 25 36 35 34 36 35 32 30 31 30 31 33 32 31 32 32 34 33 29 26 23 20 19 18 17 17 15 15 15 15 16 17 17 16 14 14 13 13 12 11 10 10 8 7 7 6 6 5 5 6
4 5 9 8 9 10 11 13 15 17 15 11 12 14 14 15 16 13 9 6 4 8 11 7 4 4 3 3 3 2 3 6 7 13 20 23 28 31 31 32 32 33 33 33 33 33 34 35 32 31 34 35 34 32 28 26 25 22 21 20 20 19 17 16 15 15 16 17 17 16 15 14 13 13 12 11 10 9 8 8 8 7 6 6 7 8
6 7 9 8 8 10 11 10 11 12 12 10 13 17 18 18 19 14 7 5 5 9 13 7 3 5 5 5 4 5 10 10 11 18 24 25 27 29 29 30 31 32 34 36 36 35 33 32 31 31 34 34 31 29 27 26 25 25 24 22 21 18 16 15 16 16 17 17 17 16 15 14 14 13 12 11 10 9 8 9 9 8 8 8 10 11
6 6 10 11 10 10 11 11 12 12 12 13 16 21 19 17 17 12 6 6 7 8 10 7 5 9 7 7 9 8 11 11 10 14 19 21 24 26 27 28 29 32 36 38 37 33 31 31 31 31 31 29 27 25 24 22 21 24 26 25 22 20 17 16 16 17 18 18 17 16 14 14 14 13 12 11 10 9 10 11 10 10 10 12 13 13
5 6 13 15 13 13 13 14 16 16 16 16 17 20 20 18 18 13 7 8 9 7 8 5 10 9 7 8 10 10 11 11 9 11 16 18 19 23 27 28 29 31 34 37 34 30 30 31 31 29 26 25 24 23 22 20 18 21 25 25 23 22 20 18 17 18 19 19 17 15 14 14 14 13 12 11 11 11 11 11 11 11 12 13 13 13
4 7 12 13 14 14 14 16 17 17 17 17 17 18 19 20 20 15 9 11 12 8 5 7 11 8 7 8 10 11 12 12 13 15 16 17 18 23 26 26 26 28 30 32 31 29 30 31 29 26 24 25 25 24 22 19 18 20 20 19 19 20 19 18 17 16 17 17 16 15 15 15 14 13 13 12 13 12 12 12 12 12 12 12 13 12
5 6 10 12 13 12 12 14 16 16 16 18 19 18 16 17 20 18 12 13 13 10 8 6 7 8 9 9 9 14 18 17 18 19 19 18 20 22 22 21 22 25 26 28 31 32 30 30 29 27 27 27 26 24 22 19 19 20 18 16 17 17 16 16 15 13 13 14 14 16 16 16 14 13 13 13 13 12 12 13 13 12 11 12 13 12
5 5 8 9 10 10 12 13 14 15 15 17 18 19 17 16 18 18 14 11 10 10 11 10 6 4 6 8 10 17 22 20 18 18 19 20 21 21 20 20 21 24 26 29 32 32 30 30 30 29 28 26 24 23 22 20 19 20 18 18 18 16 15 15 14 14 13 13 14 16 16 15 14 13 14 13 12 12 12 12 12 11 11 11 12 11
5 5 6 8 8 8 11 13 14 16 15 15 16 18 18 15 14 14 13 11 10 10 10 9 6 3 6 9 11 14 18 17 16 17 18 20 23 22 21 22 22 25 29 31 31 31 32 33 32 30 27 25 24 23 21 21 21 19 18 18 17 15 15 16 14 13 13 14 15 15 15 15 14 15 15 14 13 13 13 12 12 11 10 10 11 11
6 5 5 7 6 6 10 13 10 10 12 11 12 15 18 15 13 14 15 14 13 9 7 7 5 6 10 10 10 12 13 13 14 17 18 20 22 23 22 22 22 26 31 32 32 34 35 34 31 28 26 25 24 22 20 21 21 20 19 18 17 17 17 15 12 13 15 16 17 16 15 16 16 16 15 14 14 13 13 13 12 12 11 11 10 10
8 6 6 6 5 6 10 8 4 5 8 5 1 6 14 18 17 15 13 13 14 10 7 6 7 11 10 10 10 11 12 13 14 17 19 20 22 23 23 23 23 27 31 32 34 35 34 33 30 28 27 25 24 23 21 20 19 19 19 18 17 19 18 15 14 15 14 14 16 17 16 17 17 16 14 14 14 14 14 13 12 13 13 12 11 10
8 6 5 5 5 5 6 5 3 5 5 2 7 7 8 12 15 16 13 13 14 13 11 8 11 15 12 10 11 11 12 15 14 15 19 20 22 26 27 27 29 32 34 35 36 35 33 34 34 32 29 27 26 24 21 18 18 18 18 18 18 18 18 17 17 15 13 15 17 17 16 16 16 16 15 15 14 14 14 14 14 13 11 11 11 11
7 4 4 4 6 5 6 6 6 3 1 5 8 8 7 6 6 11 13 14 15 14 14 12 10 12 10 11 14 14 15 17 14 13 17 20 23 30 31 31 34 37 38 38 38 35 34 36 35 32 29 27 26 23 19 19 20 20 20 19 18 18 18 18 18 16 14 16 17 17 16 16 16 16 16 15 14 14 15 15 14 12 10 11 12 12
8 6 5 4 5 4 5 7 4 1 1 3 5 5 4 3 5 5 5 9 13 14 14 13 10 12 12 13 18 19 18 17 12 11 17 21 26 31 32 31 36 39 39 38 34 31 33 34 32 29 29 28 24 21 23 24 22 21 22 21 19 18 18 18 18 17 15 15 15 16 16 15 15 16 16 15 15 15 15 14 13 12 12 12 13 13
10 6 4 3 4 4 5 6 5 3 3 4 4 4 3 6 6 5 3 4 10 13 15 14 11 13 14 14 20 22 17 12 7 10 20 25 27 31 31 32 38 40 38 36 32 31 33 33 32 30 29 27 24 23 27 27 24 22 23 21 20 19 18 17 18 18 16 16 16 17 16 16 16 16 15 15 16 15 14 14 14 14 13 13 15 15
12 6 3 3 4 5 5 5 6 5 3 2 3 4 4 7 6 4 4 6 7 9 14 17 13 14 16 18 21 19 12 8 5 12 23 26 28 32 31 34 39 38 34 34 33 33 34 33 32 29 27 26 25 26 28 27 24 23 23 22 21 19 19 18 18 18 18 18 18 17 17 17 16 16 16 16 16 15 15 15 16 15 13 12 13 13
10 5 4 6 6 5 6 5 3 2 1 1 1 2 5 7 5 5 8 7 4 5 11 13 12 18 21 21 20 15 8 6 8 18 27 29 30 32 31 35 40 37 33 34 33 33 33 32 30 28 26 26 27 26 26 25 24 23 22 22 21 20 19 19 19 19 20 19 19 18 18 17 17 17 16 16 17 16 16 15 15 14 13 11 11 10
8 6 6 7 6 5 5 5 2 1 2 3 2 1 4 6 6 7 7 2 3 5 12 13 12 21 26 23 19 13 7 7 19 29 32 32 32 32 32 37 39 35 34 34 32 31 32 30 28 27 26 26 26 25 25 24 24 24 24 24 23 22 21 21 22 23 23 22 21 19 19 19 19 19 18 18 18 18 16 15 15 14 12 12 11 11
7 6 6 7 7 5 5 5 4 2 3 4 4 3 3 5 6 4 2 5 9 7 13 20 16 21 29 25 19 12 10 20 32 35 34 35 34 32 35 39 38 34 35 36 32 31 31 29 27 26 26 26 26 26 27 27 26 26 28 28 27 27 26 25 24 24 23 23 22 21 22 21 20 19 19 19 18 18 17 16 15 14 13 13 12 11
6 6 6 6 5 4 5 6 5 2 3 6 7 5 1 1 1 4 7 6 8 9 6 20 21 23 27 22 14 13 21 30 34 34 35 37 35 34 37 39 36 36 39 37 32 31 31 29 28 27 27 27 25 23 27 30 27 26 29 28 25 24 24 22 21 20 21 22 22 22 22 21 19 19 19 18 18 18 17 16 15 14 13 13 12 11
7 6 5 5 4 5 5 4 2 2 6 8 6 5 3 2 2 5 7 4 5 10 9 1 11 23 26 18 15 21 26 29 31 35 37 37 36 36 37 36 36 39 39 35 32 32 31 30 29 28 26 26 23 21 24 27 26 25 26 25 21 20 20 19 19 20 20 21 21 21 21 20 19 18 18 18 18 17 16 15 13 12 11 11 10 10
4 3 0 1 2 1 1 3 3 6 10 9 5 8 9 5 4 4 4 6 7 9 13 12 11 19 20 17 19 24 26 29 32 34 35 35 36 38 38 36 37 38 36 34 33 31 29 29 29 28 26 24 23 23 23 25 25 25 25 24 22 22 21 21 21 22 22 21 21 21 20 20 19 18 18 17 16 15 14 13 12 11 10 10 9 9
3 4 1 1 3 5 5 5 5 7 9 8 6 8 9 7 5 6 6 7 9 9 9 11 15 17 16 16 20 24 28 33 34 33 34 35 35 37 39 38 36 35 35 35 34 31 29 29 29 27 26 24 24 24 24 24 25 25 25 24 24 23 23 22 22 23 22 21 21 21 20 20 19 18 17 16 14 14 13 13 12 12 12 11 10 10
3 2 3 3 4 4 3 3 4 5 5 6 6 6 6 5 4 5 6 6 7 8 7 8 12 16 15 16 22 28 31 34 35 33 34 35 35 36 38 37 36 36 36 35 33 32 31 30 29 27 27 26 24 25 25 25 25 25 26 26 25 24 24 23 23 23 23 22 22 21 20 20 19 18 17 15 14 14 13 13 14 15 15 14 12 11
4 5 5 4 3 2 5 4 3 2 2 4 5 6 5 5 4 4 5 5 6 8 7 7 10 14 13 16 26 33 32 32 33 32 31 34 36 36 36 36 37 37 36 34 33 31 31 30 28 27 27 26 25 26 26 26 25 25 26 26 25 25 25 25 24 24 23 22 22 21 21 21 19 18 18 18 17 16 15 16 17 16 16 16 15 13
4 6 6 2 1 4 6 5 1 2 3 3 5 6 7 6 5 5 6 7 7 8 8 8 9 11 12 17 27 33 31 31 33 30 29 32 34 34 35 37 37 37 37 36 33 31 30 29 28 27 27 26 26 26 26 25 26 26 26 26 25 26 26 25 24 24 22 22 22 22 21 19 16 16 18 19 18 17 16 17 17 17 16 16 15 13
3 2 4 4 3 2 2 1 2 0 1 2 3 5 6 6 6 6 6 6 7 8 9 11 11 12 14 18 25 31 33 33 32 30 28 30 32 33 37 39 38 37 37 35 32 31 29 27 28 29 27 26 26 26 26 26 26 25 25 25 25 26 27 26 25 23 22 22 22 21 20 16 14 15 18 18 16 14 15 16 16 16 15 15 13 10
2 1 2 2 2 2 2 2 2 1 1 2 3 4 5 6 6 7 7 7 7 7 9 12 12 13 14 16 19 28 34 33 31 31 29 28 30 34 38 40 39 39 38 35 33 33 30 28 29 29 28 27 26 26 26 26 26 25 25 25 25 27 27 26 25 23 22 22 21 19 17 16 14 15 17 16 14 14 15 17 17 15 14 13 11 10
Wind_Direction
196 203 209 211 210 206 208 212 215 218 223 221 212 213 213 224 228 212 230 208 171 190 209 217 225 218 231 239 251 248 200 178 100 90 97 106 113 128 143 134 139 162 160 172 191 192 177 171 175 174 171 171 169 169 168 165 162 161 160 153 150 148 141 142 149 152 158 170 178 177 185 184 180 181 180 198 197 185 193 231 262 243 198 211 215 203
198 211 211 210 211 206 207 213 215 216 229 237 223 220 214 217 233 215 223 214 176 187 211 211 225 219 224 243 251 235 185 141 100 101 106 113 122 134 147 154 160 155 152 163 172 177 174 170 179 179 177 179 173 172 170 165 162 159 156 152 150 150 145 157 164 161 167 173 172 174 177 175 180 184 188 201 196 186 187 207 242 241 203 211 232 234
202 217 211 207 210 211 210 210 215 215 226 243 236 231 223 206 230 225 219 221 189 178 214 208 217 223 222 242 251 226 162 109 108 119 119 124 133 138 147 155 156 154 157 168 169 161 161 169 187 191 189 189 179 175 172 166 164 158 156 155 155 157 162 169 166 163 170 169 165 167 168 174 179 182 191 196 197 198 198 211 233 233 202 208 228 232
202 213 208 206 208 212 213 206 211 216 219 237 238 235 234 205 217 228 215 218 195 169 216 211 204 226 223 229 251 228 120 110 118 128 131 140 150 153 156 157 155 157 161 169 171 162 162 170 187 199 200 194 182 174 171 166 161 158 160 159 157 164 167 164 162 164 169 168 164 157 157 166 167 173 181 182 197 212 208 218 227 220 203 205 218 226
206 203 201 204 206 209 212 205 205 213 214 226 234 235 239 218 214 225 220 210 188 174 212 225 206 221 226 221 235 152 106 118 131 134 139 146 154 156 158 161 162 164 167 173 177 174 173 177 189 200 197 193 186 173 170 166 161 161 162 158 160 167 166 164 166 171 173 174 171 160 156 162 162 169 174 177 197 199 193 211 219 215 214 208 214 229
210 200 196 202 205 205 210 208 201 206 213 219 228 231 238 232 214 218 222 196 183 192 198 219 231 215 218 222 220 155 113 129 142 140 145 141 144 152 154 161 169 175 179 182 185 185 182 182 191 196 189 190 187 173 171 168 165 167 164 161 169 171 167 168 172 175 176 176 172 166 162 160 159 163 168 183 195 187 182 198 220 233 249 242 235 235
211 199 194 201 203 202 208 211 201 202 212 216 217 224 237 242 217 212 215 182 175 214 189 202 236 230 210 216 218 184 132 138 151 147 148 143 146 156 159 165 173 180 187 189 189 187 183 183 186 188 187 187 181 174 174 170 168 171 166 166 172 170 167 169 172 171 172 173 169 164 162 158 157 156 161 181 191 192 199 198 223 241 248 250 234 220
208 201 193 199 202 201 205 210 201 199 212 217 202 213 232 244 234 215 208 182 172 208 202 202 220 241 229 202 207 201 149 141 157 153 150 151 154 159 163 169 173 177 185 193 191 184 182 184 182 184 185 182 179 176 173 169 169 171 169 168 171 169 167 167 168 168 169 173 170 164 163 162 159 155 158 177 180 183 199 202 215 228 224 222 227 219
203 204 192 194 203 202 201 209 204 198 211 217 196 208 225 239 245 227 211 205 189 192 222 212 205 227 247 200 196 202 165 146 156 155 156 159 160 164 166 169 172 176 181 189 192 187 184 183 180 182 182 179 180 178 172 168 168 170 168 166 168 168 164 163 165 167 167 171 172 169 167 163 159 157 158 163 159 168 188 196 201 183 168 234 241 237
199 208 197 191 204 205 198 208 206 197 207 217 203 206 218 233 247 246 236 230 212 202 230 217 196 207 242 218 206 202 169 152 157 155 160 164 165 168 169 167 170 178 182 183 187 189 186 181 178 179 178 178 181 178 172 168 168 169 165 161 164 164 159 159 161 161 162 166 167 169 165 155 151 154 159 161 156 168 186 190 200 191 202 235 249 257
192 203 205 194 202 206 197 204 206 198 202 214 215 206 205 223 236 252 261 236 213 212 230 226 204 199 228 227 221 217 163 150 158 160 161 165 167 168 168 168 172 180 182 177 181 186 184 179 178 177 174 178 182 176 169 167 168 168 161 159 161 160 155 156 159 156 158 162 161 163 159 149 147 152 164 173 160 159 178 188 225 226 229 249 264 271
192 193 208 197 197 205 197 197 204 203 201 209 222 208 192 208 220 238 252 226 211 212 219 232 218 199 212 225 225 227 169 150 155 165 167 165 166 167 166 167 176 187 182 173 178 183 183 182 180 176 171 176 185 177 168 168 166 160 156 157 159 159 155 155 156 154 155 160 158 156 154 150 154 161 169 173 157 158 180 196 230 249 260 275 280 279
198 187 204 197 195 203 198 189 200 201 197 206 222 211 191 193 199 219 230 209 214 224 212 225 226 209 209 221 235 237 182 157 159 164 170 172 168 166 166 166 176 186 180 172 179 182 184 184 177 169 167 179 194 184 167 160 154 149 149 153 156 156 153 152 153 153 152 155 154 155 157 154 156 163 164 161 168 186 197 207 226 235 225 269 284 286
193 185 202 198 190 200 197 184 194 192 188 201 213 209 195 189 190 204 218 208 211 236 229 225 227 221 207 206 235 248 202 164 167 164 168 175 171 166 165 164 166 172 173 175 180 182 184 179 173 170 170 183 192 177 160 155 153 151 149 151 152 151 150 148 149 151 150 151 153 157 162 161 161 167 171 173 185 202 209 216 222 198 175 212 260 262
194 189 198 195 181 196 201 196 198 189 185 201 213 217 208 197 197 198 206 209 205 220 231 230 227 218 211 203 233 245 210 162 163 160 165 170 167 163 162 161 159 161 167 172 175 178 178 172 171 174 180 193 185 164 153 153 153 153 152 152 151 148 149 150 152 156 158 158 159 162 166 168 170 178 186 189 199 215 215 215 223 204 187 195 216 234
200 191 180 181 175 188 208 220 210 192 188 201 210 218 210 197 194 196 212 214 209 224 221 226 235 208 196 314 272 243 197 152 146 152 160 165 161 156 150 152 152 147 154 164 167 171 173 171 173 178 194 199 177 152 147 151 150 152 152 151 150 149 150 153 155 159 163 164 163 166 173 179 184 192 200 205 212 219 210 189 197 212 204 204 216 231
195 185 175 182 184 188 204 224 218 198 189 197 208 209 202 205 205 192 206 195 86 250 213 201 227 191 138 139 295 237 135 128 134 148 158 161 158 148 133 135 140 140 153 165 170 173 174 177 181 183 195 190 162 147 150 151 150 151 149 149 150 151 152 154 158 162 166 171 171 174 183 190 195 202 208 210 211 212 203 184 193 216 222 217 218 225
181 175 180 188 197 196 201 217 219 202 194 201 205 195 190 217 229 214 201 180 182 232 216 200 214 196 165 184 186 138 133 140 151 149 151 154 150 136 120 126 140 148 159 168 171 176 178 181 182 178 182 172 151 148 154 152 151 150 149 151 151 151 154 156 162 168 170 175 177 180 187 192 194 195 194 188 177 174 184 198 204 211 221 215 189 173
182 177 174 185 196 197 198 215 218 197 200 214 201 181 189 216 225 216 205 192 197 214 220 217 213 204 201 186 161 167 164 159 165 155 148 153 148 128 118 129 145 154 162 168 171 176 178 177 178 174 170 159 149 151 154 151 150 149 150 153 151 149 153 157 162 166 167 171 175 174 171 165 159 160 156 151 157 169 181 201 205 193 188 172 149 157
194 190 165 180 190 188 187 211 217 190 197 219 205 186 205 224 217 213 208 201 204 207 212 219 214 208 216 191 169 178 175 161 170 171 158 157 149 137 134 141 152 161 167 172 173 173 174 173 179 179 164 152 151 153 151 150 149 149 150 152 152 153 155 155 158 159 157 153 148 140 132 131 134 138 146 156 165 166 161 168 177 169 164 152 146 151
191 196 165 177 185 186 188 203 210 190 188 213 209 192 202 218 217 214 210 203 206 208 204 217 223 207 209 215 190 182 170 163 178 179 173 160 144 144 152 154 159 167 170 175 175 170 171 174 178 176 160 151 155 154 150 149 147 147 151 153 156 157 154 151 150 148 144 137 132 132 134 144 151 151 158 169 169 159 152 153 154 168 177 156 144 146
183 188 158 172 182 190 196 198 206 202 193 204 214 198 196 207 212 209 211 210 208 212 205 215 232 207 118 302 210 181 170 174 182 171 177 187 152 145 153 157 162 168 167 170 175 172 174 175 170 163 154 151 156 153 149 149 146 146 152 154 155 151 146 144 141 138 136 134 135 141 151 159 159 157 167 173 165 150 143 144 149 164 165 146 138 140
177 171 150 178 195 193 191 192 208 217 205 201 216 210 196 202 212 210 208 207 206 212 211 215 222 182 27 354 102 143 170 177 184 180 187 192 148 137 145 154 160 165 162 162 168 168 170 169 162 156 152 150 150 148 146 145 143 147 151 150 146 140 138 137 134 134 136 137 142 149 159 166 167 167 171 168 153 138 131 134 140 141 134 132 136 128
159 170 160 183 198 195 194 190 206 223 213 201 214 220 210 202 207 216 217 207 205 212 210 208 203 154 35 20 45 78 188 185 190 187 164 125 121 128 139 147 151 155 157 160 163 160 159 157 154 152 150 147 144 142 142 141 141 143 142 139 138 138 139 137 134 137 140 142 148 151 153 158 161 159 157 154 146 136 133 132 129 122 124 130 128 116
155 179 168 182 183 184 193 188 198 216 217 205 201 214 224 209 198 211 227 213 205 222 219 213 191 158 101 55 30 21 168 162 151 134 116 108 116 126 134 139 144 148 152 158 159 154 152 151 151 151 149 145 141 140 142 141 140 140 138 140 145 145 145 145 142 142 142 144 147 147 147 149 147 142 140 141 139 134 133 131 123 115 111 110 102 92
171 182 168 186 186 180 193 193 191 201 210 210 200 209 227 220 204 204 213 209 202 216 226 227 149 132 126 132 140 80 68 71 82 97 105 112 120 126 132 138 144 148 151 156 155 150 150 151 152 152 148 145 142 140 140 140 140 142 143 146 149 149 149 150 148 144 143 142 139 137 141 142 138 135 137 137 134 134 133 124 115 106 98 92 85 76
182 190 186 201 197 191 202 196 184 187 202 207 200 206 216 220 222 215 191 207 210 206 230 237 140 138 148 154 155 122 90 88 89 95 105 114 121 128 135 138 142 147 152 154 151 149 150 153 154 151 146 144 142 140 138 137 138 145 149 149 148 149 150 150 150 145 141 139 136 135 139 140 137 135 135 134 131 130 128 123 116 106 95 88 84 79
189 192 201 211 206 201 203 196 186 188 204 210 206 207 203 203 226 235 203 204 213 214 226 183 130 142 165 159 153 139 117 110 108 106 109 113 121 128 132 134 137 144 149 151 151 150 150 150 150 148 144 142 139 138 137 135 135 146 154 153 152 154 153 152 150 144 140 141 140 138 136 136 135 132 129 127 124 118 117 115 107 98 95 93 93 90
198 202 201 210 219 210 196 196 196 189 198 213 218 218 205 199 219 235 215 203 212 230 233 150 136 153 168 162 158 147 132 121 116 116 115 115 119 124 128 133 137 142 149 154 156 155 149 146 146 144 142 141 140 139 137 135 136 142 146 147 150 156 159 157 150 142 143 147 144 139 135 131 127 127 126 123 118 114 109 105 100 97 99 99 97 94
189 209 201 208 225 220 203 204 200 188 195 206 211 216 209 202 218 227 218 208 211 226 238 211 183 182 174 172 162 134 125 124 123 124 128 130 128 128 132 136 140 147 154 157 157 155 149 144 145 146 145 144 143 140 137 138 139 138 135 131 134 142 150 151 142 135 139 143 139 133 130 126 123 121 119 114 111 111 107 104 104 103 100 97 95 95
178 215 216 214 218 224 240 232 198 186 202 207 206 213 210 206 216 221 220 219 217 221 227 230 236 216 162 141 128 122 124 130 133 136 142 144 140 138 140 142 145 151 153 151 150 149 146 144 147 147 145 143 141 140 141 140 139 138 133 130 133 139 145 143 134 128 132 131 127 125 123 122 120 113 109 106 104 103 100 100 101 99 98 99 97 96
183 236 230 220 210 211 242 241 202 187 201 208 208 212 211 211 212 211 216 222 221 220 219 223 230 176 117 112 119 131 136 140 144 149 152 151 148 148 150 149 149 149 148 146 145 144 144 147 149 146 143 142 141 142 142 138 137 137 133 134 139 139 140 144 138 129 128 122 117 118 118 116 113 107 106 106 104 103 101 99 98 95 95 94 92 93
187 235 230 207 204 206 223 237 229 205 203 205 208 209 209 213 212 207 210 210 211 218 218 217 197 119 116 132 144 148 148 149 152 156 159 158 156 156 154 149 145 144 144 145 145 145 146 147 147 144 142 140 139 138 136 134 135 136 133 137 142 137 141 152 146 131 128 121 114 116 117 114 112 112 111 111 109 107 104 100 97 92 85 80 79 83
191 216 232 191 188 215 213 222 244 216 209 204 222 228 218 215 213 214 215 203 197 210 230 206 143 123 134 151 152 154 154 151 152 155 160 164 162 156 150 147 147 145 144 144 144 144 146 147 145 143 141 139 137 135 134 134 135 135 135 139 141 142 149 153 140 132 132 124 118 118 116 113 113 112 110 107 104 102 100 97 93 87 82 78 73 70
196 204 236 188 186 213 194 188 205 207 218 348 7 331 274 235 217 213 221 215 197 203 230 219 151 144 157 150 141 149 148 144 150 156 161 165 160 153 149 147 150 150 145 145 146 145 147 149 147 147 146 143 140 138 136 138 140 139 139 140 141 142 144 141 137 139 135 123 120 120 117 116 117 115 113 112 110 108 108 106 100 96 100 102 95 87
200 211 251 203 193 197 168 184 209 201 350 359 350 322 307 301 249 214 213 216 204 198 215 221 177 149 139 120 127 142 140 138 148 157 161 160 156 155 153 150 153 154 150 149 150 150 152 154 153 151 148 143 143 143 141 143 145 144 141 141 143 141 141 141 141 141 133 126 125 123 121 123 123 121 118 117 116 113 111 112 114 120 128 123 114 113
193 208 237 209 203 210 185 188 192 119 22 326 314 283 262 289 276 247 222 213 208 198 200 214 194 148 125 116 130 143 142 140 146 156 157 155 155 159 160 158 160 159 153 153 154 153 155 155 151 146 141 139 142 145 144 144 146 145 142 142 143 141 141 143 141 139 136 132 127 124 126 128 126 123 121 120 118 114 111 116 120 119 114 106 103 111
199 212 233 221 218 212 197 202 205 203 222 234 237 238 271 288 267 259 297 252 217 199 191 201 188 142 128 129 136 142 147 148 154 164 158 154 157 162 162 163 163 158 154 157 156 150 150 150 146 144 141 140 141 142 142 143 146 146 143 143 144 142 141 140 139 139 138 134 131 131 132 131 127 125 125 123 120 120 122 126 121 111 107 103 99 100
197 205 243 256 240 207 199 216 220 225 243 230 196 187 240 270 255 225 250 248 226 209 199 197 176 136 134 143 142 143 155 163 171 171 162 156 160 162 160 158 159 157 158 160 154 147 148 148 146 145 142 139 139 138 139 143 146 146 144 144 145 143 142 140 139 140 139 135 135 135 134 133 131 128 128 126 127 130 130 124 115 108 108 107 99 96
189 191 224 235 235 219 217 226 220 235 271 133 149 186 208 223 217 204 217 214 203 223 217 202 164 137 140 146 146 153 182 194 171 166 162 158 158 161 160 158 158 158 158 155 150 147 148 146 142 141 140 139 139 141 143 145 145 144 145 146 146 143 140 140 139 140 140 137 135 136 135 134 131 130 130 131 132 130 123 115 110 106 109 112 112 112
188 194 208 216 224 221 223 234 231 122 113 138 146 202 209 206 200 201 209 229 315 250 216 205 166 143 147 153 160 177 206 168 152 154 157 157 156 158 161 159 157 155 153 151 148 146 144 143 141 140 140 141 143 145 148 147 146 148 148 147 147 145 144 145 146 145 143 139 135 135 137 137 138 140 140 137 134 129 125 125 126 126 129 129 122 114
193 198 205 215 226 220 211 228 232 178 148 158 146 139 205 205 191 207 274 334 327 295 212 204 188 151 152 164 175 177 148 135 143 148 152 155 154 155 159 157 152 151 153 152 149 146 144 144 143 142 142 143 147 152 154 154 155 158 158 155 154 156 156 157 158 158 155 149 143 141 142 143 144 144 139 132 129 127 126 128 130 132 134 129 120 112
183 190 206 211 218 226 215 221 236 220 163 170 154 135 204 206 139 316 317 319 328 337 221 203 191 157 153 165 167 143 127 131 142 147 149 153 153 153 157 155 151 152 154 152 149 148 148 146 144 145 145 146 151 159 163 163 163 165 166 165 162 163 164 165 166 166 162 155 148 142 138 136 135 133 128 125 123 122 120 120 120 121 120 114 112 111
188 190 210 202 195 222 223 210 214 123 139 162 152 125 154 163 33 331 321 334 0 13 15 227 167 149 150 151 138 130 127 129 140 145 146 150 151 152 155 155 153 154 153 150 150 150 149 146 145 146 146 149 154 157 161 166 167 165 167 168 165 161 161 159 157 151 144 140 137 132 129 127 125 124 122 120 119 117 116 117 116 114 111 108 108 110
177 145 250 225 154 172 63 77 96 114 128 139 119 106 128 125 46 12 5 22 30 32 27 35 90 129 143 140 133 134 130 131 140 145 146 148 151 153 155 154 154 154 151 150 152 151 148 147 147 146 146 150 154 152 154 164 167 162 161 162 157 151 148 146 144 138 132 132 131 128 127 125 124 123 122 120 120 120 121 123 124 124 125 124 123 119
73 75 335 293 112 94 72 86 116 120 119 123 114 110 121 114 62 41 45 46 46 49 51 69 101 128 145 141 138 140 136 136 142 147 148 149 150 153 155 154 153 153 151 152 154 153 150 149 147 146 146 147 150 151 153 159 162 158 154 151 147 145 145 145 142 137 135 134 133 130 129 126 123 122 120 119 121 122 122 127 132 133 133 130 126 123
20 6 274 233 164 131 88 79 83 91 114 127 124 116 118 115 87 61 61 65 66 71 80 95 116 133 140 138 140 142 139 139 142 144 148 152 151 152 156 157 154 154 154 154 154 152 150 148 146 146 146 147 150 151 151 154 157 155 150 146 145 148 148 145 141 140 139 136 134 133 131 127 123 122 124 128 132 132 137 149 152 149 146 141 134 128
346 323 293 240 200 130 104 98 59 47 156 149 126 123 125 126 119 98 89 89 85 90 101 113 128 135 136 138 143 144 142 142 142 142 150 156 154 154 158 159 158 158 158 157 155 152 150 148 148 148 148 149 151 151 150 151 153 151 147 147 149 150 147 145 143 141 139 136 135 135 131 126 129 138 145 149 150 152 161 168 164 157 151 145 140 139
359 333 327 336 45 73 97 113 137 218 180 123 82 86 95 107 122 117 107 106 101 99 107 123 141 147 142 138 142 143 143 144 144 146 153 158 158 158 159 159 158 158 159 160 158 154 151 150 153 153 151 151 151 149 149 149 148 148 147 148 150 149 147 145 143 140 138 138 138 135 130 130 142 159 161 160 161 166 170 168 164 161 157 153 151 154
349 326 344 26 58 88 107 60 5 324 152 109 95 91 88 99 118 120 117 119 112 106 113 123 135 145 142 141 147 149 148 148 148 149 154 160 163 163 161 159 158 158 159 160 159 156 153 154 157 155 152 150 149 147 148 147 146 148 149 148 150 150 148 144 141 140 140 140 138 136 135 138 154 168 169 168 171 171 166 161 163 166 163 159 156 150
332 15 39 59 81 114 122 81 42 37 52 87 128 123 100 102 119 123 127 130 121 120 128 130 132 139 142 146 157 158 154 152 151 151 154 161 166 166 163 160 159 158 159 159 159 157 156 156 157 154 150 149 149 148 148 148 147 149 149 149 151 151 147 145 144 142 141 141 140 141 143 146 153 164 169 168 163 155 149 147 151 154 153 149 142 132